Theta_e
357 364 367 367 366 365 364 362 361 361 361 361 362 363 362 362 362 361 362 363 362 363 361 359 358 356 355 355 354 355 357 357 357 355 355 354 354 353 353 355 355 348 350
360 364 366 366 366 365 364 362 361 360 360 361 362 362 362 362 362 362 363 363 364 363 360 358 357 355 354 354 353 354 354 355 356 356 356 356 353 353 352 352 352 353 352
360 363 364 365 365 365 363 362 360 360 360 361 362 362 361 361 362 362 362 363 363 360 359 357 356 355 354 353 352 352 353 355 357 356 355 351 353 354 354 354 354 354 356
361 362 362 364 364 363 362 361 360 360 360 361 362 362 362 361 362 363 363 363 362 359 357 356 354 354 353 352 351 351 352 354 357 357 351 352 353 359 356 354 353 354 355
359 361 361 364 363 363 362 361 360 359 359 361 362 362 361 361 362 362 363 363 362 359 358 356 354 353 352 351 350 351 353 355 355 351 346 347 347 356 359 353 351 353 354
357 360 363 363 363 362 362 361 360 359 360 361 362 362 361 361 361 361 362 362 362 359 357 355 354 354 352 351 352 352 353 354 351 343 341 351 344 357 354 354 355 356 356
355 360 361 363 363 362 362 361 360 359 359 360 361 361 361 360 360 360 360 360 360 357 355 354 354 354 353 352 352 351 352 352 344 340 337 339 344 354 355 357 357 357 357
355 359 360 363 362 361 361 360 359 358 359 360 360 360 360 360 359 359 358 359 359 357 355 354 354 354 352 350 351 351 352 351 345 339 340 344 353 358 357 357 356 355 354
356 357 359 359 361 361 360 359 359 358 359 358 358 358 359 360 359 360 359 359 359 357 356 355 354 353 351 350 350 351 352 351 342 342 342 350 357 357 356 354 353 351 350
354 356 357 358 356 356 357 359 359 358 358 358 358 359 359 359 359 359 357 358 358 357 356 354 353 352 351 350 350 351 352 351 342 339 348 352 355 355 353 351 348 346 345
352 354 355 355 354 353 354 356 358 359 359 358 358 359 356 353 353 355 355 357 357 356 355 353 352 351 350 350 350 351 352 345 340 338 349 355 355 351 348 345 344 342 341
348 351 353 353 352 352 352 353 353 354 354 354 354 354 351 349 348 352 353 357 356 355 354 353 352 351 350 340 339 346 344 342 341 347 351 355 352 347 344 342 339 338 337
348 350 352 352 352 351 351 351 351 352 352 352 352 348 344 346 346 345 344 348 344 351 343 346 344 343 341 340 338 335 338 341 346 349 352 353 348 343 340 338 336 335 334
346 348 351 352 351 350 350 349 349 348 349 349 349 344 340 340 340 341 342 341 340 341 339 339 340 340 340 340 334 334 339 347 346 347 347 350 346 342 339 336 334 334 333
343 346 349 350 350 350 348 347 348 346 344 345 346 344 342 339 340 341 339 338 338 337 338 337 337 336 336 335 337 342 346 344 345 344 342 347 345 342 337 334 333 332 331
343 343 346 347 348 349 346 344 343 340 339 340 344 342 342 342 340 341 339 337 336 336 337 335 337 335 336 341 344 344 345 345 344 340 339 338 343 340 339 333 332 331 330
340 339 340 339 345 345 339 340 336 336 336 336 341 339 342 343 340 340 340 336 335 336 336 334 336 339 343 339 338 340 343 342 341 339 334 335 336 340 337 334 332 330 329
337 338 339 344 338 337 337 336 335 333 335 336 340 340 341 345 343 341 338 335 335 336 335 339 343 341 338 336 333 336 338 339 339 336 335 332 326 326 334 336 332 329 328
338 337 340 340 337 337 337 337 336 333 336 336 339 338 340 345 345 340 338 337 335 342 342 340 335 335 332 332 334 336 335 334 338 338 334 325 322 319 322 336 334 331 328
339 338 340 341 342 341 345 338 337 335 339 338 342 340 342 344 344 339 337 338 344 341 336 334 331 329 328 332 334 330 328 332 333 332 327 320 318 319 318 322 318 322 335
339 338 338 341 342 339 343 340 341 336 339 339 342 342 342 344 343 344 343 343 341 339 336 333 329 325 324 325 322 323 320 326 324 321 323 315 316 317 317 319 320 321 323
338 338 338 341 342 341 342 341 342 341 342 343 343 344 345 344 344 344 341 337 334 332 331 330 329 327 324 322 320 321 318 320 316 318 314 315 315 317 319 320 321 319 318
337 336 337 338 339 338 337 343 345 344 344 344 343 344 345 346 346 342 339 334 331 330 329 327 327 325 322 320 320 319 313 314 311 314 313 312 313 313 316 318 318 320 317
336 337 338 337 337 332 332 341 343 341 339 343 344 342 345 346 342 339 335 332 330 330 328 327 325 324 323 317 317 316 313 310 304 303 309 310 311 312 312 314 317 320 317
336 335 336 336 334 334 338 343 343 341 342 344 342 341 341 339 337 336 333 332 329 327 325 323 320 317 315 313 311 309 309 307 307 305 300 305 308 310 314 316 317 316 317
332 333 335 335 334 338 343 345 344 341 342 340 338 337 337 335 334 332 332 328 324 323 321 320 317 316 314 312 310 309 308 305 305 305 303 303 303 307 310 312 315 316 316
Wind_Speed
10 12 20 17 19 20 21 21 19 19 20 19 19 18 18 19 19 19 18 18 17 16 15 15 13 13 12 12 11 10 9 11 10 9 8 7 8 7 5 5 8 5 5
20 16 21 19 20 20 21 21 20 20 20 20 18 18 17 18 19 18 17 16 16 16 16 14 13 12 11 11 9 9 10 10 8 6 4 4 4 4 2 1 3 4 2
18 18 19 21 21 21 20 21 20 20 21 21 19 18 17 17 18 17 16 15 14 15 14 14 13 12 11 10 8 7 8 8 6 5 3 1 2 3 3 2 2 2 1
19 16 16 24 21 22 21 21 21 20 20 21 20 18 18 17 17 16 16 15 13 15 14 12 11 10 9 8 7 5 6 6 5 4 2 3 5 8 5 3 1 3 2
17 16 16 21 24 22 22 22 22 22 21 20 20 19 17 17 16 15 14 14 13 13 13 12 11 10 8 7 5 3 1 5 5 5 4 3 2 5 5 2 3 4 6
17 15 20 20 21 22 21 23 23 22 22 21 19 19 17 17 16 14 13 12 12 12 11 10 10 9 7 6 4 3 2 5 5 5 6 6 5 5 3 3 6 8 8
19 16 18 20 19 23 21 21 23 23 21 21 20 19 18 17 16 14 13 11 11 11 11 10 9 8 7 5 5 5 3 6 3 5 4 5 5 5 2 7 9 10 11
19 17 17 21 19 19 22 21 21 22 22 20 20 19 18 16 15 14 13 12 11 10 10 9 8 7 7 7 7 6 3 4 4 4 5 4 6 5 6 9 11 12 13
13 14 14 15 17 19 19 21 20 20 21 21 18 18 17 15 14 13 11 10 9 8 8 7 7 8 8 8 6 7 2 2 1 1 3 3 7 8 9 11 13 14 15
12 12 14 12 14 12 12 19 20 19 20 19 18 17 16 14 13 12 10 9 9 9 8 8 8 8 10 7 6 7 4 4 1 1 4 3 8 10 12 12 14 15 15
10 12 13 14 13 11 12 12 17 20 18 18 16 16 12 5 7 9 8 9 9 9 8 8 8 8 8 7 8 7 6 1 3 3 3 8 11 12 12 13 14 14 13
15 14 15 15 13 11 10 11 7 11 8 8 9 10 6 5 5 7 8 10 10 9 8 8 7 8 7 3 4 6 1 2 3 4 3 11 10 12 12 14 14 13 12
18 13 16 17 14 13 11 7 5 4 6 6 10 6 5 5 4 3 2 3 3 7 3 4 4 4 5 4 4 3 3 3 4 3 6 12 10 11 12 14 13 11 11
19 19 18 18 17 11 9 7 7 7 6 8 8 7 6 4 4 4 3 4 4 3 4 4 3 4 6 6 3 6 4 6 3 4 4 13 10 11 12 12 11 10 9
15 15 15 16 18 15 11 7 7 6 6 7 7 8 6 5 6 4 4 3 4 2 4 3 4 5 2 3 5 3 8 7 6 1 4 13 10 10 11 10 10 8 7
4 16 14 13 14 16 12 9 6 4 4 5 6 6 6 4 4 5 4 5 4 4 3 3 4 3 3 2 4 4 5 8 9 8 5 5 9 9 9 10 7 6 6
7 5 14 10 10 14 13 12 7 5 5 5 5 6 8 6 6 6 5 4 5 4 5 4 4 4 3 4 5 4 3 5 5 7 4 3 4 6 9 5 8 6 4
15 15 7 12 12 10 10 9 8 6 5 5 4 5 9 7 8 6 5 5 4 2 3 3 3 6 4 3 3 4 4 1 5 6 4 4 3 3 3 4 6 5 3
15 19 13 14 16 15 11 9 10 10 6 5 4 5 7 6 6 5 4 3 4 4 4 5 5 4 3 3 3 3 3 4 4 3 5 4 4 5 3 6 4 2 3
14 16 18 14 15 12 10 5 4 6 6 6 5 6 7 5 5 4 2 4 5 6 5 6 7 4 3 2 4 5 5 4 4 5 5 4 3 4 2 3 1 1 6
15 16 11 14 13 10 11 9 5 8 7 6 6 6 8 6 6 6 4 6 4 5 5 5 4 6 5 3 3 2 6 7 8 5 4 4 2 1 3 4 2 1 2
18 18 14 15 17 16 12 10 12 10 8 8 6 6 6 6 8 7 8 6 5 7 6 4 3 3 2 3 3 2 2 1 3 4 4 4 6 2 2 3 3 3 2
16 18 17 15 19 15 9 6 6 5 4 4 4 5 4 8 10 10 9 7 6 5 5 4 4 4 3 3 4 4 2 2 2 3 3 3 4 3 3 2 2 2 2
17 19 21 20 18 14 10 9 12 13 10 4 6 5 8 10 10 9 9 8 6 4 5 4 4 3 4 3 3 4 6 4 2 3 3 5 5 4 5 3 1 3 4
16 16 19 20 18 17 14 13 9 10 8 7 9 13 12 8 10 9 8 8 8 4 5 6 5 6 4 4 2 1 5 5 4 3 2 5 3 4 4 6 5 4 4
17 18 19 21 20 16 16 15 10 11 13 11 12 12 9 8 8 9 9 8 7 6 6 6 6 7 6 5 3 4 3 2 1 2 1 3 3 3 3 5 5 4 5
Wind_Direction
163 163 145 142 131 128 125 121 122 120 116 114 113 112 112 112 114 115 115 114 114 115 117 118 114 110 110 110 106 106 102 95 93 96 95 91 95 92 87 105 123 108 110
149 157 146 143 137 134 131 129 130 125 120 116 112 112 113 115 116 116 115 115 117 120 122 119 115 114 113 107 107 103 95 89 86 80 68 65 85 97 97 105 91 113 119
147 150 147 146 143 138 137 134 132 129 125 120 117 117 117 117 116 116 117 117 119 123 124 123 123 122 116 109 104 94 88 86 75 48 4 311 199 184 203 242 234 110 35
146 148 151 148 144 142 141 138 134 132 129 126 122 123 122 120 119 119 121 123 126 127 125 124 121 118 116 112 108 99 90 77 46 0 322 271 240 181 199 235 276 66 34
144 144 153 151 146 148 147 143 139 136 134 132 128 128 125 123 122 124 126 130 136 135 131 132 129 125 124 121 116 112 99 68 7 3 293 280 110 157 202 169 98 59 38
141 145 149 153 151 148 152 146 141 141 139 137 133 130 130 129 128 130 135 140 142 142 139 141 138 132 138 138 152 188 220 69 12 346 5 108 112 131 139 130 66 51 42
144 143 147 153 159 152 153 149 145 144 142 142 139 135 137 137 137 140 142 147 149 149 151 153 147 144 153 169 194 220 237 60 20 7 91 70 83 105 118 73 61 50 47
141 142 147 155 160 158 153 154 148 146 144 145 144 141 142 144 145 146 151 156 157 156 160 162 155 159 178 202 216 238 257 54 50 32 90 98 103 97 80 71 66 55 49
135 137 146 153 157 161 157 153 149 149 147 148 150 145 145 146 147 148 153 159 158 165 169 167 166 183 206 217 228 256 304 26 86 282 148 110 110 97 81 67 62 56 51
136 140 146 144 157 160 160 155 150 152 150 149 151 146 143 147 149 149 155 171 174 182 182 183 189 205 223 229 239 265 296 344 290 306 107 139 103 97 85 74 66 56 49
144 148 152 147 152 154 161 161 151 151 151 149 149 144 141 147 156 160 167 183 191 194 194 201 205 223 244 249 258 260 274 268 260 156 115 121 107 95 90 82 70 61 54
162 163 155 153 147 154 157 154 152 153 146 151 153 150 144 155 166 164 178 193 203 203 205 216 223 239 254 258 270 276 191 208 77 116 115 106 107 102 96 83 71 61 52
165 161 163 150 148 157 155 146 145 153 147 154 160 150 146 161 179 172 188 197 199 215 208 213 248 246 255 256 268 312 162 143 120 99 120 122 115 111 97 81 71 66 59
171 168 161 152 147 145 153 149 155 164 166 166 171 165 160 166 171 180 182 201 206 207 205 207 217 240 249 267 286 290 153 138 152 109 139 122 135 120 97 84 74 72 58
162 163 161 155 149 143 151 153 158 167 173 166 167 182 178 170 185 174 176 194 228 209 202 215 237 235 271 252 261 217 135 104 103 161 138 142 152 124 97 87 79 82 64
205 159 153 155 150 146 146 149 158 149 166 170 172 190 182 180 187 187 178 203 222 218 208 200 231 248 252 237 142 127 136 148 161 169 148 149 144 118 107 75 90 94 61
142 151 145 129 143 147 152 149 149 155 164 179 171 174 192 195 191 183 195 200 206 227 231 195 257 166 113 71 71 88 97 136 173 119 134 136 139 134 95 71 110 108 81
140 151 166 140 140 150 152 157 149 157 170 172 168 177 197 208 182 177 189 200 197 230 147 119 99 87 88 88 71 25 24 19 87 121 149 130 154 90 89 141 110 125 117
158 150 160 164 158 155 152 169 162 161 165 170 168 181 192 215 186 167 180 165 135 126 99 110 75 85 72 39 68 19 307 20 67 111 108 137 120 107 136 153 158 152 146
159 170 167 161 158 146 131 156 158 164 166 167 172 191 183 201 173 148 93 92 96 105 96 100 102 65 98 72 38 15 5 33 79 77 91 57 63 108 139 159 84 6 80
168 171 189 165 167 151 163 157 151 181 181 176 182 194 179 177 132 100 81 82 66 91 110 107 106 79 30 23 88 25 46 57 50 43 48 25 51 170 173 168 181 141 85
172 182 188 179 171 176 183 181 172 171 181 180 167 173 173 157 117 119 112 98 94 107 94 107 102 104 92 1 137 105 87 45 64 65 34 5 1 331 289 142 174 183 126
175 176 186 194 183 176 192 156 129 120 107 110 166 158 121 119 119 123 113 113 108 108 122 125 110 111 121 14 29 129 118 211 352 22 5 20 8 340 288 249 258 256 99
186 183 182 188 190 185 178 169 174 183 147 143 164 124 115 124 119 113 116 121 105 93 92 80 75 104 109 118 24 24 62 115 130 336 348 328 346 8 335 309 20 355 342
179 186 193 184 191 184 183 182 191 179 143 144 132 123 120 112 114 113 111 103 98 90 91 101 81 73 62 88 111 83 52 53 59 104 275 313 335 350 360 20 61 38 342
180 186 190 191 198 195 191 185 181 153 144 137 137 127 126 124 114 108 101 97 104 109 107 96 89 84 94 90 74 70 98 115 61 87 81 290 260 306 6 29 56 4 337